• In Netherlands
  • List of Countries
  • For 7 days
  • Water Temperature
  • Satellite Maps
  • Weather Map
  • Weather Widgets
  • user-avatar
    Login

    Hourly Weather Yerevan

    Today, 29 March, Wednesday

    Time Temperature Precipitation Wind Pressure Humidity
    00:00 +5°C° 0 mm 1 mps 689 mmHg 76%
    01:00 +5°C° 0 mm 1 mps 689 mmHg 77%
    02:00 +4°C° 0 mm 1 mps 689 mmHg 78%
    03:00 +4°C° 0 mm 1 mps 689 mmHg 78%
    04:00 +4°C° 0 mm 1 mps 689 mmHg 78%
    05:00 +3°C° 0 mm 1 mps 689 mmHg 79%
    06:00 +2°C° 0 mm 1 mps 689 mmHg 79%
    07:00 +5°C° 0 mm 1 mps 689 mmHg 74%
    08:00 +8°C° 0 mm 1 mps 690 mmHg 69%
    09:00 +10°C° 0 mm 1 mps 690 mmHg 62%
    10:00 +11°C° 0 mm 1 mps 690 mmHg 60%
    11:00 +13°C° 0 mm 2 mps 690 mmHg 58%
    12:00 +14°C° 0 mm 2 mps 690 mmHg 56%
    13:00 +14°C° 0 mm 2 mps 690 mmHg 54%
    14:00 +14°C° 0 mm 2 mps 690 mmHg 53%
    15:00 +15°C° 0 mm 2 mps 690 mmHg 51%
    16:00 +13°C° 0 mm 2 mps 690 mmHg 54%
    17:00 +12°C° 0 mm 2 mps 690 mmHg 56%
    18:00 +10°C° 0 mm 1 mps 690 mmHg 59%
    19:00 +9°C° 0 mm 1 mps 691 mmHg 61%
    20:00 +8°C° 0 mm 1 mps 691 mmHg 63%
    21:00 +7°C° 0 mm 1 mps 691 mmHg 64%
    22:00 +6°C° 0 mm 1 mps 691 mmHg 65%
    23:00 +6°C° 0 mm 1 mps 691 mmHg 65%

    Tomorrow, 30 March, Thursday

    Time Temperature Precipitation Wind Pressure Humidity
    00:00 +5°C° 0 mm 1 mps 692 mmHg 65%
    01:00 +5°C° 0 mm 1 mps 692 mmHg 66%
    02:00 +4°C° 0 mm 1 mps 691 mmHg 67%
    03:00 +4°C° 0 mm 1 mps 691 mmHg 68%
    04:00 +3°C° 0 mm 1 mps 691 mmHg 68%
    05:00 +3°C° 0 mm 1 mps 692 mmHg 68%
    06:00 +3°C° 0 mm 1 mps 692 mmHg 68%
    07:00 +6°C° 0 mm 1 mps 692 mmHg 63%
    08:00 +9°C° 0 mm 1 mps 692 mmHg 58%
    09:00 +12°C° 0 mm 1 mps 693 mmHg 53%
    10:00 +13°C° 0 mm 2 mps 692 mmHg 50%
    11:00 +14°C° 0 mm 2 mps 692 mmHg 48%
    12:00 +15°C° 0 mm 2 mps 691 mmHg 46%
    13:00 +15°C° 0 mm 2 mps 691 mmHg 45%
    14:00 +15°C° 0 mm 2 mps 690 mmHg 43%
    15:00 +16°C° 0 mm 2 mps 690 mmHg 42%
    16:00 +14°C° 0 mm 2 mps 690 mmHg 45%
    17:00 +13°C° 0 mm 2 mps 689 mmHg 48%
    18:00 +12°C° 0 mm 2 mps 689 mmHg 52%
    19:00 +9°C° 0 mm 2 mps 689 mmHg 54%
    20:00 +9°C° 0 mm 1 mps 690 mmHg 56%
    21:00 +8°C° 0 mm 1 mps 690 mmHg 58%
    22:00 +7°C° 0 mm 1 mps 690 mmHg 59%
    23:00 +7°C° 0 mm 1 mps 689 mmHg 60%

    Day after tomorrow, 31 March, Friday

    Time Temperature Precipitation Wind Pressure Humidity
    00:00 +7°C° 0 mm 1 mps 689 mmHg 61%
    01:00 +7°C° 0 mm 1 mps 689 mmHg 61%
    02:00 +6°C° 0 mm 1 mps 689 mmHg 62%
    03:00 +6°C° 0 mm 1 mps 688 mmHg 63%
    04:00 +6°C° 0 mm 1 mps 688 mmHg 63%
    05:00 +6°C° 0 mm 1 mps 688 mmHg 64%
    06:00 +6°C° 0 mm 1 mps 688 mmHg 64%
    07:00 +8°C° 0 mm 1 mps 688 mmHg 60%
    08:00 +10°C° 0 mm 1 mps 688 mmHg 55%
    09:00 +12°C° 0 mm 1 mps 688 mmHg 51%
    10:00 +13°C° 0.1 mm 1 mps 688 mmHg 51%
    11:00 +13°C° 0.1 mm 1 mps 688 mmHg 50%
    12:00 +14°C° 0.1 mm 1 mps 688 mmHg 50%
    13:00 +14°C° 0.3 mm 1 mps 687 mmHg 52%
    14:00 +14°C° 0.3 mm 2 mps 687 mmHg 54%
    15:00 +14°C° 0.3 mm 2 mps 687 mmHg 56%
    16:00 +13°C° 0.3 mm 2 mps 687 mmHg 61%
    17:00 +12°C° 0.3 mm 1 mps 687 mmHg 65%
    18:00 +11°C° 0.3 mm 1 mps 687 mmHg 70%
    19:00 +11°C° 0.3 mm 1 mps 687 mmHg 72%
    20:00 +10°C° 0.3 mm 1 mps 688 mmHg 74%
    21:00 +9°C° 0.3 mm 1 mps 689 mmHg 77%
    22:00 +9°C° 0.3 mm 1 mps 689 mmHg 78%
    23:00 +9°C° 0.3 mm 1 mps 689 mmHg 80%

    1 April, Saturday

    Time Temperature Precipitation Wind Pressure Humidity
    00:00 +8°C° 0.3 mm 1 mps 689 mmHg 82%
    01:00 +8°C° 0.2 mm 1 mps 689 mmHg 82%
    02:00 +8°C° 0.2 mm 1 mps 688 mmHg 83%
    03:00 +7°C° 0.2 mm 1 mps 688 mmHg 83%
    04:00 +7°C° 0.1 mm 1 mps 688 mmHg 84%
    05:00 +7°C° 0.1 mm 1 mps 689 mmHg 85%
    06:00 +6°C° 0.1 mm 1 mps 689 mmHg 85%
    07:00 +8°C° 0.1 mm 1 mps 689 mmHg 78%
    08:00 +10°C° 0.1 mm 1 mps 689 mmHg 72%
    09:00 +12°C° 0.1 mm 1 mps 690 mmHg 65%
    10:00 +12°C° 0.1 mm 1 mps 690 mmHg 63%
    11:00 +13°C° 0.1 mm 1 mps 689 mmHg 62%
    12:00 +14°C° 0.1 mm 1 mps 689 mmHg 60%
    13:00 +14°C° 0.3 mm 1 mps 689 mmHg 61%
    14:00 +13°C° 0.3 mm 2 mps 688 mmHg 63%
    15:00 +13°C° 0.3 mm 2 mps 688 mmHg 64%
    16:00 +12°C° 0.5 mm 1 mps 688 mmHg 68%
    17:00 +11°C° 0.5 mm 1 mps 688 mmHg 71%
    18:00 +11°C° 0.5 mm 1 mps 688 mmHg 75%
    19:00 +10°C° 0.3 mm 1 mps 688 mmHg 77%
    20:00 +9°C° 0.3 mm 1 mps 689 mmHg 80%
    21:00 +9°C° 0.3 mm 1 mps 689 mmHg 82%
    22:00 +8°C° 0.2 mm 1 mps 689 mmHg 83%
    23:00 +7°C° 0.2 mm 0 mps 689 mmHg 84%

    2 April, Sunday

    Time Temperature Precipitation Wind Pressure Humidity
    00:00 +6°C° 0.2 mm 0 mps 688 mmHg 85%
    01:00 +6°C° 0.2 mm 0 mps 688 mmHg 85%
    02:00 +6°C° 0.2 mm 0 mps 688 mmHg 86%
    03:00 +5°C° 0.2 mm 0 mps 688 mmHg 86%
    04:00 +5°C° 0.2 mm 0 mps 688 mmHg 87%
    05:00 +5°C° 0.2 mm 0 mps 688 mmHg 87%
    06:00 +5°C° 0.2 mm 0 mps 689 mmHg 87%
    07:00 +7°C° 0.1 mm 0 mps 689 mmHg 80%
    08:00 +8°C° 0.1 mm 0 mps 689 mmHg 73%
    09:00 +10°C° 0.1 mm 0 mps 690 mmHg 66%
    10:00 +11°C° 0.1 mm 0 mps 690 mmHg 63%
    11:00 +12°C° 0.1 mm 0 mps 690 mmHg 61%
    12:00 +13°C° 0.1 mm 0 mps 690 mmHg 58%
    13:00 +13°C° 0.2 mm 0 mps 689 mmHg 57%
    14:00 +14°C° 0.2 mm 0 mps 689 mmHg 57%
    15:00 +14°C° 0.2 mm 0 mps 689 mmHg 57%
    16:00 +13°C° 0.1 mm 0 mps 689 mmHg 60%
    17:00 +12°C° 0.1 mm 0 mps 689 mmHg 63%
    18:00 +11°C° 0.1 mm 0 mps 689 mmHg 67%
    19:00 +11°C° 0 mm 1 mps 689 mmHg 69%
    20:00 +10°C° 0 mm 1 mps 689 mmHg 71%
    21:00 +9°C° 0 mm 1 mps 690 mmHg 74%
    22:00 +9°C° 0 mm 1 mps 690 mmHg 75%
    23:00 +8°C° 0 mm 1 mps 690 mmHg 77%

    3 April, Monday

    Time Temperature Precipitation Wind Pressure Humidity
    00:00 +8°C° 0 mm 1 mps 690 mmHg 78%
    01:00 +7°C° 0.1 mm 1 mps 690 mmHg 80%
    02:00 +7°C° 0.1 mm 1 mps 690 mmHg 81%
    03:00 +7°C° 0.1 mm 1 mps 691 mmHg 82%
    04:00 +6°C° 0.1 mm 1 mps 691 mmHg 83%
    05:00 +6°C° 0.1 mm 1 mps 691 mmHg 84%
    06:00 +6°C° 0.1 mm 1 mps 691 mmHg 85%
    07:00 +7°C° 0.1 mm 1 mps 692 mmHg 77%
    08:00 +9°C° 0.1 mm 1 mps 692 mmHg 69%
    09:00 +11°C° 0.1 mm 1 mps 692 mmHg 62%
    10:00 +12°C° 0.2 mm 1 mps 692 mmHg 59%
    11:00 +13°C° 0.2 mm 1 mps 692 mmHg 55%
    12:00 +14°C° 0.2 mm 1 mps 692 mmHg 52%
    13:00 +14°C° 0.2 mm 1 mps 692 mmHg 52%
    14:00 +14°C° 0.2 mm 1 mps 691 mmHg 52%
    15:00 +14°C° 0.2 mm 1 mps 691 mmHg 52%
    16:00 +13°C° 0.1 mm 1 mps 691 mmHg 55%
    17:00 +12°C° 0.1 mm 1 mps 691 mmHg 58%
    18:00 +11°C° 0.1 mm 1 mps 691 mmHg 61%
    19:00 +10°C° 0 mm 1 mps 691 mmHg 64%
    20:00 +9°C° 0 mm 1 mps 692 mmHg 68%
    21:00 +8°C° 0 mm 1 mps 692 mmHg 71%
    22:00 +7°C° 0 mm 1 mps 692 mmHg 72%
    23:00 +6°C° 0 mm 1 mps 692 mmHg 74%
    Show more